SCP
0 0 0 0 0 0 0 0 0 0 0 0 0 0 0 0 0 0 0 0 0 0 0 0 0 0 0 0 0 0 0 0 0 0 0 0 0 0 0 0 0 0 0
0 0 0 0 0 0 0 0 0 0 0 0 0 0 0 0 0 0 0 0 0 0 0 0 0 0 0 0 0 0 0 0 0 0 0 0 0 0 0 0 0 0 0
0 0 0 0 0 0 0 0 0 0 0 0 0 0 0 0 0 0 0 0 0 0 0 0 0 0 0 0 0 0 0 0 0 0 0 0 0 0 0 0 0 0 0
0 0 0 0 0 0 0 0 0 0 0 0 0 0 0 0 0 0 0 0 0 0 0 0 0 0 0 0 0 0 0 0 0 0 0 0 0 0 0 0 0 0 0
0 0 0 0 0 0 0 0 0 0 0 0 0 0 0 0 0 0 0 0 0 0 0 0 0 0 0 0 0 0 0 0 0 0 0 0 0 0 0 0 0 0 0
0 0 0 0 0 0 0 0 0 0 0 0 0 0 0 0 0 0 0 0 0 0 0 0 0 0 0 0 0 0 0 0 0 0 0 0 0 0 0 0 0 0 0
0 0 0 0 0 0 0 0 0 0 0 0 0 0 0 0 0 0 0 0 0 0 0 0 0 0 0 0 0 0 0 0 0 0 0 0 0 0 0 0 0 0 0
0 0 0 0 0 0 0 0 0 0 0 0 -0 0 0 0 0 0 0 0 0 0 0 0 0 0 0 0 0 0 0 0 0 0 0 0 0 0 0 0 0 0 0
0 0 0 0 0 0 0 0 0 0 0 0 0 0 0 0 0 0 0 0 0 0 0 0 0 0 0 0 0 0 0 0 0 0 0 0 0 0 0 0 0 0 0
0 0 0 0 0 0 0 0 0 0 0 0 0 0 0 0 0 0 0 0 0 0 0 0 0 0 0 0 0 0 0 0 0 0 0 0 0 0 0 0 0 0 0
0 0 0 0 0 0 0 0 0 0 0 0 0 0 0 0 0 0 0 0 0 0 0 0 0 0 0 0 0 0 0 0 0 0 0 0 0 0 0 0 0 0 0
0 0 0 0 0 0 0 0 0 0 0 0 0 0 0 0 0 0 0 0 0 0 0 0 0 0 0 0 0 0 0 0 0 0 0 0 0 0 0 0 0 0 0
0 0 0 0 0 0 0 0 0 0 0 0 0 0 0 0 0 0 0 0 0 0 0 0 0 0 0 0 0 0 0 0 0 0 0 0 0 0 0 0 0 0 0
0 0 0 0 0 0 0 0 0 0 0 0 0 0 0 0 0 0 0 0 0 0 0 0 0 0 0 0 0 0 0 0 0 0 0 0 0 0 0 0 0 0 0
0 0 0 0 0 0 0 0 0 0 0 0 0 0 0 0 0 0 0 0 0 0 0 0 0 0 0 0 0 0 0 0 0 0 0 0 0 0 0 0 0 0 0
0 0 0 0 0 0 0 0 0 0 0 0 0 0 0 0 0 0 0 0 0 0 0 0 0 0 0 0 0 0 0 0 0 0 0 0 0 0 0 0 0 0 0
0 0 0 0 0 0 0 0 0 0 0 0 0 0 0 0 0 0 0 0 0 0 0 0 0 0 0 0 0 0 0 0 0 0 0 0 0 0 0 0 0 0 0
0 0 0 0 0 0 0 0 0 0 0 0 0 0 0 0 0 0 0 0 0 0 0 0 0 0 0 0 0 0 0 0 0 0 0 0 0 0 0 0 0 0 0
0 0 0 0 0 0 0 0 0 0 0 0 0 0 0 0 0 0 0 0 0 0 0 0 0 0 0 0 0 0 0 0 0 0 0 0 0 0 0 0 0 0 0
0 0 0 0 0 0 0 0 0 0 0 0 0 0 0 0 0 0 0 0 0 0 0 0 0 0 0 0 0 0 0 0 0 0 0 0 0 0 0 0 0 0 0
0 0 0 0 0 0 0 0 0 0 0 0 0 0 0 0 0 0 0 0 0 0 0 0 0 0 0 0 0 0 0 0 0 0 0 0 0 0 0 0 0 0 0
0 0 0 0 0 0 0 0 0 0 0 0 0 0 0 0 0 0 0 0 0 0 0 0 0 0 0 0 0 0 0 0 0 0 0 0 0 0 0 0 0 0 0
0 0 0 0 0 0 0 0 0 0 0 0 0 0 0 0 0 0 0 0 0 0 0 0 0 0 0 0 0 0 0 0 0 0 0 0 0 0 0 0 0 0 0
0 0 0 0 0 0 0 0 0 0 0 0 0 0 0 0 0 0 0 0 0 0 0 0 0 0 0 0 0 0 0 0 0 0 0 0 0 0 0 0 0 0 0
0 0 0 0 0 0 0 0 0 0 0 0 0 0 0 0 0 0 0 0 0 0 0 0 0 0 0 0 0 0 0 0 0 0 0 0 0 0 0 0 0 0 0
0 0 0 0 0 0 0 0 0 0 0 0 0 0 0 0 0 0 0 0 0 0 0 0 0 0 0 0 0 0 0 0 0 0 0 0 0 0 0 0 0 0 0
Wind_Speed
2 2 2 3 3 3 3 3 3 4 4 4 4 3 3 3 3 2 2 6 6 6 6 4 3 3 2 2 1 1 2 3 4 5 5 6 6 7 8 9 10 10 11
2 2 3 3 3 3 2 2 3 3 2 2 3 4 3 3 3 3 2 4 6 6 6 5 4 3 3 3 2 1 2 4 4 5 6 6 6 7 8 9 10 10 11
2 2 2 3 3 3 3 3 3 3 3 3 3 3 3 3 3 3 3 2 3 5 6 5 4 4 3 3 3 3 3 4 3 4 6 6 6 7 8 9 10 10 11
3 2 2 2 3 3 3 2 3 3 3 3 3 3 3 3 3 3 2 2 2 2 4 5 4 4 4 4 4 4 3 4 4 4 5 5 6 7 7 9 10 10 11
3 2 2 2 3 3 3 3 2 2 2 4 3 2 2 2 3 3 3 3 3 2 2 4 4 4 4 4 4 4 4 5 5 5 6 6 6 6 7 9 10 11 11
3 2 2 3 3 3 3 3 3 2 2 3 3 3 3 2 2 2 3 3 3 3 2 2 2 3 3 3 4 4 4 5 6 6 7 7 6 6 8 10 11 11 11
3 3 2 3 3 2 3 3 2 3 3 3 3 4 4 3 2 2 2 2 3 3 2 2 1 1 1 3 3 4 5 5 6 7 8 8 7 7 8 9 10 10 11
3 3 2 2 3 2 4 3 2 2 2 3 2 2 4 5 4 3 3 3 3 3 3 2 2 1 1 1 2 3 3 5 6 7 8 8 8 8 8 9 9 10 10
3 2 2 2 2 2 2 3 2 1 2 2 1 1 1 2 4 4 3 3 4 3 3 2 2 2 1 1 1 2 2 3 5 7 8 8 8 8 8 9 9 9 10
4 3 2 2 2 2 2 3 2 1 0 2 2 1 1 2 1 4 4 3 4 3 3 3 3 2 2 1 1 1 2 2 3 6 7 7 8 9 9 9 10 9 9
4 4 3 2 2 2 2 3 2 1 0 1 1 1 1 0 1 1 3 4 4 3 3 2 2 2 2 1 1 2 2 2 2 4 6 7 7 8 9 9 10 10 10
3 4 3 3 3 2 3 2 2 2 1 2 1 1 1 1 1 1 2 3 3 4 3 2 2 2 2 2 2 2 3 3 3 3 4 6 7 8 9 9 10 10 11
3 4 4 3 3 3 3 2 2 3 2 2 2 2 2 2 2 2 2 2 2 3 3 2 2 2 2 1 2 3 3 3 4 4 4 5 7 7 7 8 9 10 10
3 4 4 3 4 4 3 2 2 3 2 2 3 2 2 3 2 2 2 1 2 2 2 3 2 2 2 2 2 3 2 3 4 4 4 5 7 7 7 7 7 8 9
3 4 4 4 4 4 3 3 2 3 3 3 3 3 2 2 2 2 2 2 2 1 3 3 2 2 2 2 2 2 2 3 4 5 5 6 7 7 8 7 7 6 6
4 4 4 4 4 4 4 3 3 3 3 3 2 3 3 2 2 2 2 2 2 2 3 3 3 3 3 3 2 2 2 4 4 4 5 6 6 7 8 8 7 6 6
4 4 4 4 4 4 4 3 3 4 4 4 4 3 4 3 2 2 1 2 2 2 3 3 2 2 2 3 2 1 1 2 2 3 4 5 6 7 7 7 7 6 6
4 4 4 4 4 4 4 4 4 4 4 4 5 4 4 3 3 2 1 2 2 3 3 4 3 2 3 2 2 2 2 2 2 3 4 5 5 6 7 7 7 7 7
3 4 4 4 4 4 4 4 3 4 3 3 4 4 4 4 4 3 2 2 2 2 2 3 3 2 2 2 1 2 1 1 2 2 3 4 5 6 7 8 8 8 7
3 4 4 4 4 4 4 4 4 4 4 4 4 3 4 4 4 4 3 3 2 2 2 2 3 2 2 2 1 1 1 1 1 1 2 3 4 6 7 8 9 8 8
3 3 4 4 5 4 4 5 4 4 4 4 4 4 4 6 6 4 3 2 2 2 2 2 3 2 2 2 2 2 2 1 2 1 1 1 2 2 3 6 7 8 8
3 3 4 4 5 5 10 10 6 3 3 4 5 5 5 5 7 8 8 6 3 2 3 2 3 3 4 3 2 2 2 2 2 1 2 2 2 2 2 3 6 8 8
3 4 4 4 5 7 11 11 10 4 3 4 4 4 5 6 6 4 7 7 6 7 5 4 4 5 4 3 2 3 3 4 4 3 2 2 2 2 2 3 6 8 8
2 3 4 5 5 7 12 12 11 4 3 4 4 4 5 5 5 5 4 5 5 5 5 4 5 6 5 4 4 4 4 3 3 2 3 3 2 2 2 2 5 7 7
3 3 4 4 5 7 12 12 10 3 3 5 5 4 5 5 9 9 4 4 5 6 6 7 9 9 9 8 5 2 2 3 3 3 3 3 2 2 1 2 2 5 6
3 3 4 4 5 6 11 12 11 3 3 4 4 5 7 8 10 9 4 4 5 6 6 6 6 6 5 6 7 5 5 4 3 3 4 4 3 3 2 1 2 3 3
Wind_Direction
27 12 8 7 1 356 357 352 353 356 0 354 354 357 350 342 331 326 319 323 320 312 305 293 280 274 281 281 277 258 199 180 168 155 153 151 147 140 143 147 146 150 150
40 24 12 4 356 350 347 347 347 350 347 347 349 347 342 341 334 328 321 326 326 321 311 297 289 277 278 283 275 250 189 173 178 169 162 157 154 151 151 152 149 151 153
39 33 19 1 346 347 356 360 356 357 357 356 348 340 339 337 335 328 326 321 322 326 324 306 293 286 278 274 257 232 202 187 188 180 170 164 163 160 159 158 155 154 153
34 32 24 359 343 352 3 2 2 358 354 352 341 334 337 333 332 324 324 320 319 319 323 319 301 287 277 265 253 238 217 197 197 189 176 169 166 165 166 166 161 159 154
27 32 21 354 352 2 4 358 11 0 345 342 330 332 334 333 330 334 332 322 315 308 306 314 314 302 281 266 258 244 229 214 205 193 181 171 166 170 171 170 162 157 153
11 19 13 2 6 10 1 0 353 352 335 328 333 341 330 332 339 347 336 333 323 314 309 307 315 313 300 276 263 250 237 223 218 199 183 176 174 166 159 161 157 155 155
5 11 6 360 6 8 351 351 353 354 349 344 3 345 336 343 1 356 347 344 339 331 324 311 303 300 309 309 291 261 247 238 231 203 188 181 176 170 161 158 158 160 161
355 3 4 348 350 354 357 1 10 359 348 9 33 18 351 345 344 353 350 351 340 334 334 326 313 299 299 304 300 283 263 247 221 197 184 183 178 176 174 170 168 170 169
339 341 346 346 348 357 342 340 353 16 343 345 35 91 65 314 314 326 341 347 343 339 330 325 327 319 294 289 289 285 275 249 202 189 185 187 185 181 180 179 177 176 175
343 339 335 338 340 342 332 325 352 329 357 330 336 3 190 202 288 323 325 332 335 332 326 331 331 325 317 297 270 260 248 244 202 192 191 193 191 189 186 186 185 182 181
343 344 340 337 331 322 319 326 336 330 271 255 281 299 321 312 211 221 306 322 332 319 317 313 310 311 310 289 264 252 222 219 219 203 196 200 202 199 195 195 194 193 190
335 343 343 339 323 316 311 311 312 311 284 263 257 238 222 232 233 207 258 298 311 306 315 314 307 305 304 292 273 263 227 216 220 221 203 201 207 207 203 204 204 200 200
331 331 343 334 325 317 312 311 313 308 296 278 261 250 237 234 215 198 223 269 293 301 316 316 301 301 295 293 287 285 251 229 219 216 216 214 200 201 204 211 213 209 208
304 320 336 333 326 328 331 326 318 309 306 295 287 271 257 251 222 204 204 215 302 314 315 298 309 303 301 291 284 279 269 246 227 214 206 212 200 194 195 204 215 215 214
328 337 343 342 338 338 335 334 328 319 320 307 301 292 274 267 249 229 213 198 202 281 296 287 295 304 305 287 285 264 256 260 241 223 210 201 193 194 195 203 215 213 210
343 345 348 346 345 346 345 343 331 324 334 321 310 312 302 282 277 253 229 220 208 212 254 270 268 288 303 304 287 262 251 258 251 234 217 204 197 199 201 202 205 209 213
350 351 345 347 345 344 345 348 338 336 335 328 328 320 311 304 290 278 249 230 224 211 245 274 263 282 288 294 309 295 254 239 242 229 218 204 197 195 197 199 196 198 207
348 347 347 351 347 345 342 341 336 339 333 328 325 324 317 323 310 290 269 251 240 224 233 271 281 284 276 278 281 287 276 239 227 227 213 207 201 198 196 195 195 198 204
350 351 353 347 340 336 333 330 325 324 319 317 318 316 313 318 310 301 285 272 262 255 230 248 275 276 278 278 289 286 274 273 238 221 212 212 208 204 200 197 199 200 204
352 349 343 335 332 328 324 324 323 324 319 317 316 313 305 293 290 297 292 283 276 270 255 251 267 273 266 272 247 259 278 267 261 245 223 209 206 209 204 197 196 197 202
351 342 342 337 333 327 330 330 322 327 321 321 322 319 308 308 307 304 299 288 285 278 275 265 269 275 266 255 248 242 249 259 264 228 205 214 201 206 205 200 197 195 195
344 348 346 335 334 335 335 338 334 325 319 317 315 315 312 312 317 317 310 300 283 272 269 259 267 267 264 250 248 236 231 232 255 211 182 229 191 210 215 204 194 190 190
343 343 339 337 330 323 335 341 340 329 308 302 301 308 318 323 326 312 312 313 298 287 270 257 251 254 254 246 236 246 237 229 236 213 178 236 207 222 221 205 193 190 188
323 323 325 326 324 328 341 343 342 340 313 302 297 293 296 301 307 312 310 310 300 293 278 263 248 252 253 243 228 235 240 258 259 225 185 217 210 215 215 207 195 189 185
310 310 309 316 319 320 335 341 344 327 320 311 302 300 300 292 304 316 306 295 300 299 296 288 280 276 273 262 245 225 222 227 249 236 196 198 198 195 206 220 196 182 180
290 306 313 310 309 309 325 335 338 322 317 313 309 306 310 312 313 318 296 276 287 292 299 302 299 289 273 255 246 225 216 222 239 242 201 188 190 176 198 209 191 184 181